Main page
METAR-TAF:

METAR-TAF

Airports :

Calais–Dunkerque Airport

Calais, France

latitude: 50-57-39N, longitude: 001-57-05E, elevation: 4 m

Current weather observation

The report was made 4 hours and 50 minutes ago, at 20:00 UTC
Wind 15 kt from the West/Southwest
Temperature 10°C
Humidity 87%
Pressure 1024 hPa
Visibility 10 km or more

METAR: LFAC 202000Z AUTO 24015KT 9999 BKN015/// BKN021/// BKN160/// 10/08 Q1024

Time: 01:50 (00:50 UTC)


TAF: missing

Weather observations and forecasts of more than 4000 airports (METAR and TAF reports).

The available stations are represented by yellow and red dots on the map.

Hover mouse over dot to see the name of the station.

Then click to see weather observations and forecasts.

To change the map : click on the green buttons with a black cross to zoom in, on the green button with a dash to zoom out, or on the green arrows for adjacent maps.


METAR-TAF: